星链-2486 (STARLINK-2486 )

导读

STARLINK-2486是美国SpaceX公司星链星座的一员,于2021年4月7日发射升空。星链作为全球规模最大的低轨卫星互联网星座,依托低成本制造与可复用火箭实现批量部署。这颗卫星运行于近地轨道,通过星间链路与地面信关站协同,为全球用户提供高速低延迟的宽带互联网服务,助力星链完成覆盖全球的通信网络构建,推动卫星互联网商业化落地。

Basic Information
目录编号:
48143
目录名称:
STARLINK-2486
国际标识:
2021-027BD
轨道中心:
EARTH
卫星名称:
星链-2486
卫星全名:
星链-2486 (STARLINK-2486 )
卫星状态:
在轨 (已飞行1977 天)
发射日期:
2021-04-07 UTC
国别 :
美国 (US)
星等 :
--
Orbit Information
数据来源 国际轨道数据
星历时间: 2026-09-05T14:28:47+0800
6小时前
查看轨道信息
半长轴: 6803.159km
偏心率: 0.0003641
轨道倾角: 53.153°
近地点辐角 2.574°
升交点赤经 336.262°
平近点角 357.529°
近地点: 422.544km
远地点: 427.5km
周期: 93.073分钟
每日圈数: 15.471658
Detailed Information
固有亮度:
5
最大亮度:
2.5
卫星平台:
Starlink V1.0
覆盖范围:
全球
运营商:
太空探索技术公司
运营商所在国:
美国
制造商(研发单位):
太空探索技术公司
制造商所在国:
美国
使用方式:
暂无
Satellite Introduction
星链(Starlink)计划是由太空探索技术公司(SpaceX)提出的一个巨型低轨卫星互联网星座项目,计划在2019年至2024年间在太空搭建由约1.2万颗卫星组成的“星链”网络,其中1584颗将部署在地球上空550千米处的近地轨道,并从2020年开始工作。该卫星仍在工作。
2D Orbit Map
3D Orbit Map
Orbit Altitude Analysis Chart
Orbit Inclination Analysis Chart
Orbit Comprehensive Analysis Chart
View Comprehensive Chart
Conjunction Data List
Event ID Objects TCA Miss Dist (km) Collision Risk Probability Collision Risk Index (CRI) Action
CDM_260908-035404-814304-891521
YAM-3 (48915)
2026-09-08T
03:54:32+0000
1.592 km
极远距离
5.122689E-6 低风险 0.49
CDM_260905-235704-070104-814322
GAOFEN 8 (40701)
2026-09-05T
23:57:29+0000
2.255 km
极远距离
1.977545E-6 低风险 0.41
CDM_260906-100601-414704-814322
2026-09-06T
10:06:54+0000
2.138 km
极远距离
1.428209E-6 低风险 0.38